Tracking 31027 objects as of 19-Jul-2025
HD Live streaming from Space Station
objects crossing your sky now

STARLINK-2562

Track STARLINK-2562 now!
10-day predictions
STARLINK-2562 is classified as:


NORAD ID: 48288
Int'l Code: 2021-036N
Perigee: 432.2 km
Apogee: 433.5 km
Inclination: 53.1 °
Period: 93.1 minutes
Semi major axis: 6803 km
RCS: Unknown
Launch date: April 29, 2021
Source: United States (US)
Launch site: AIR FORCE EASTERN TEST RANGE (AFETR)
Your satellite tracking list
ATLAS 5 CENTAUR DEB
Track 1 satellite(s)




NASA's NSSDC Master Catalog

Two Line Element Set (TLE):
1 48288U 21036N   25199.91668981  .01675163  00000-0  29714-1 0  9999
2 48288  53.0555  48.0269 0000962  81.6296  92.9313 15.46932065233694
Source of the keplerian elements: AFSPC